Location: Aix-en-Ergny
(50.5839°N, 1.9996°E)
Time: 05:43:33
(UTC+00:00)

Cosmos 540 Rocket - Pass Details

Date: 23 October 2019
Orbit: 740 x 754 km, 74.1° (Epoch: 13 November)

Event Time Altitude Azimuth Distance (km) Brightness Sun altitude
Rises 05:36:23 0° 334° (NNW) 3,216 6.4 -8.7°
Reaches altitude 10° 05:38:46 10° 332° (NNW) 2,286 5.6 -8.3°
Maximum altitude 05:43:55 70° 250° (WSW) 802 3.5 -7.5°
Drops below altitude 10° 05:49:01 10° 168° (SSE) 2,261 6.2 -6.7°
Sets 05:51:22 0° 166° (SSE) 3,179 7.1 -6.4°
